Location: STAR School
(35.3054°N, 111.2976°W)
Time: 08:20:55
(UTC-07:00)

N. Korean satellite - Visible Passes

Search period start: 21 October 2019 00:00
Search period end: 31 October 2019 00:00
Orbit: 455 x 508 km, 97.2° (Epoch: 20 October)

Date Brightness Start Highest point End Pass type
(mag) Time Alt. Az. Time Alt. Az. Time Alt. Az.
21 Oct 10.2 05:19:21 10° ENE 05:21:07 13° E 05:22:54 10° ESE visible
22 Oct 10.1 18:33:02 10° SW 18:34:56 14° W 18:36:52 10° WNW visible
23 Oct 7.8 06:00:30 10° NNE 06:04:03 49° E 06:07:38 10° S visible
23 Oct 8.7 18:06:26 10° SSW 18:09:30 31° W 18:12:37 10° NNW visible
24 Oct 9.5 05:35:46 10° NE 05:38:41 22° E 05:41:36 10° SSE visible
25 Oct 10.5 05:12:32 10° E 05:13:14 10° E 05:13:55 10° ESE visible
26 Oct 9.8 18:24:35 10° SW 18:27:00 18° W 18:29:27 10° NW visible
27 Oct 8.3 05:52:43 10° NNE 05:56:11 38° E 05:59:39 10° SSE visible
27 Oct 8.1 17:58:20 10° S 18:01:35 41° W 18:04:53 10° NNW visible
28 Oct 9.8 05:28:11 10° NE 05:30:47 18° E 05:33:22 10° SE visible
29 Oct 10.4 18:43:49 10° WSW 18:44:31 10° W 18:45:14 10° W visible
30 Oct 7.0 06:09:56 10° NNE 06:13:37 70° E 06:17:18 10° S visible
30 Oct 9.3 18:16:14 10° SSW 18:19:01 23° W 18:21:52 10° NW visible
